This demonstration page uses our WeatherBlox Daily Observations layout. Learn more.

Left ArrowRight Arrow

39.51506, -84.39828

Hourly Observations for April 22, 2018

Temp ( °F °C ) Dew Point ( °F °C ) Humidity (%) Winds ( mph kmh ) Pressure ( in mb ) Visibility ( mi km ) Precip ( " mm )
12:15 am 00:15 Clear 49 9.2 28 -2.5 44 44 Calm 30.33 1027 10 16 0.00 0.00
12:35 am 00:35 Clear 48 8.9 28 -2 47 47 N 5 7 30.33 1027 10 16 0.00 0.00
12:55 am 00:55 Clear 48 8.7 28 -2.5 46 46 NNE 6 9 30.33 1027 10 16 0.00 0.00
1:15 am 01:15 Clear 47 8.4 27 -2.6 46 46 N 6 9 30.33 1027 10 16 0.00 0.00
1:35 am 01:35 Clear 47 8.2 27 -2.7 46 46 N 5 7 30.33 1027 10 16 0.00 0.00
1:55 am 01:55 Clear 46 7.6 26 -3.1 47 47 N 5 7 30.33 1027 10 16 0.00 0.00
2:15 am 02:15 Clear 46 7.5 28 -2 51 51 N 3 6 30.33 1027 10 16 0.00 0.00
2:35 am 02:35 Clear 43 6 33 0.3 67 67 N 3 6 30.36 1028 10 16 0.00 0.00
2:55 am 02:55 Clear 43 6.2 32 0.1 65 65 Calm 30.36 1028 10 16 0.00 0.00
3:15 am 03:15 Clear 44 6.7 31 -0.8 59 59 N 5 7 30.33 1027 10 16 0.00 0.00
3:35 am 03:35 Clear 44 6.5 30 -0.9 60 60 N 6 9 30.30 1026 10 16 0.00 0.00
3:55 am 03:55 Clear 44 6.8 29 -1.6 55 55 N 3 6 30.30 1026 10 16 0.00 0.00
4:15 am 04:15 Clear 44 6.4 29 -1.5 57 57 N 5 7 30.30 1026 10 16 0.00 0.00
4:35 am 04:35 Clear 43 6 31 -0.7 62 62 N 5 7 30.33 1027 10 16 0.00 0.00
4:55 am 04:55 Clear 44 6.6 29 -1.7 56 56 N 6 9 30.30 1026 10 16 0.00 0.00
5:15 am 05:15 Clear 45 7.1 28 -2.1 52 52 NNE 7 11 30.30 1026 10 16 0.00 0.00
5:35 am 05:35 Clear 45 7.2 29 -1.9 53 53 NNE 8 13 30.27 1025 10 16 0.00 0.00
5:55 am 05:55 Clear 45 7.2 28 -2 52 52 Calm 30.30 1026 10 16 0.00 0.00
6:15 am 06:15 Clear 44 6.7 30 -1.2 57 57 N 5 7 30.30 1026 10 16 0.00 0.00
6:35 am 06:35 Clear 44 6.7 30 -1.3 57 57 N 5 7 30.30 1026 10 16 0.00 0.00
6:55 am 06:55 Mostly Cloudy 44 6.5 29 -1.5 57 57 N 5 7 30.30 1026 10 16 0.00 0.00
7:15 am 07:15 Sunny 44 6.8 29 -1.4 56 56 N 5 7 30.30 1026 10 16 0.00 0.00
7:35 am 07:35 Sunny 44 6.8 31 -0.4 60 60 N 6 9 30.33 1027 10 16 0.00 0.00
7:55 am 07:55 Partly Cloudy 45 7.1 31 -0.3 60 60 N 3 6 30.33 1027 10 16 0.00 0.00
8:15 am 08:15 Mostly Cloudy 46 8 32 -0.1 57 57 NNE 6 9 30.33 1027 10 16 0.00 0.00
8:35 am 08:35 Sunny 47 8.6 31 -0.4 54 54 NNE 8 13 30.33 1027 10 16 0.00 0.00
8:55 am 08:55 Sunny 48 9 31 -0.5 52 52 NNE 8 13 30.33 1027 10 16 0.00 0.00
9:15 am 09:15 Sunny 49 9.4 32 -0.2 51 51 NE 8 13 30.33 1027 10 16 0.00 0.00
9:35 am 09:35 Sunny 50 9.8 32 -0.2 50 50 NNE 7 11 30.30 1026 10 16 0.00 0.00
9:55 am 09:55 Mostly Cloudy 51 10.4 31 -0.4 47 47 NE 6 9 30.33 1027 10 16 0.00 0.00
10:15 am 10:15 Partly Cloudy 52 11 33 0.3 48 48 NNE 8 13 30.33 1027 10 16 0.00 0.00
10:35 am 10:35 Sunny 53 11.4 31 -0.4 44 44 NNE 8 13 30.33 1027 10 16 0.00 0.00
10:55 am 10:55 Sunny 53 11.6 31 -0.6 43 43 NNE 7 11 30.33 1027 10 16 0.00 0.00
11:15 am 11:15 Sunny 54 12 31 -0.3 43 43 NE 6 9 30.33 1027 10 16 0.00 0.00
11:35 am 11:35 Sunny 54 12.4 33 0.3 44 44 NE 9 15 30.30 1026 10 16 0.00 0.00
11:55 am 11:55 Sunny 55 12.8 33 0.7 44 44 NE 8 13 30.30 1026 10 16 0.00 0.00
12:15 pm 12:15 Sunny 56 13.3 33 0.8 43 43 NE 10 17 30.30 1026 10 16 0.00 0.00
12:35 pm 12:35 Sunny 57 14 34 1 41 41 NE 10 17 30.30 1026 10 16 0.00 0.00
12:55 pm 12:55 Sunny 59 14.9 34 1 39 39 NE 9 15 30.30 1026 10 16 0.00 0.00
1:15 pm 13:15 Sunny 60 15.5 33 0.5 36 36 NE 9 15 30.27 1025 10 16 0.00 0.00
1:35 pm 13:35 Sunny 61 16.1 30 -1 31 31 E 12 19 30.27 1025 10 16 0.00 0.00
1:55 pm 13:55 Sunny 62 16.6 31 -0.8 31 31 ENE 10 17 30.27 1025 10 16 0.00 0.00
2:15 pm 14:15 Sunny 63 17.2 31 -0.8 30 30 ENE 12 19 30.27 1025 10 16 0.00 0.00
2:35 pm 14:35 Sunny 63 17.4 29 -1.4 28 28 NE 12 19 30.27 1025 10 16 0.00 0.00
2:55 pm 14:55 Sunny 64 17.6 29 -1.5 27 27 NE 12 19 30.27 1025 10 16 0.00 0.00
3:15 pm 15:15 Sunny 64 17.9 30 -1.3 27 27 NE 8 13 30.21 1023 10 16 0.00 0.00
3:35 pm 15:35 Sunny 64 18 29 -1.9 26 26 ENE 12 19 30.21 1023 10 16 0.00 0.00
3:55 pm 15:55 Sunny 65 18.5 28 -2.1 25 25 E 9 15 30.21 1023 10 16 0.00 0.00
4:15 pm 16:15 Sunny 67 19.2 27 -2.9 22 22 ENE 13 20 30.21 1023 10 16 0.00 0.00
4:35 pm 16:35 Sunny 66 19.1 27 -3 22 22 E 10 17 30.18 1022 10 16 0.00 0.00
4:55 pm 16:55 Sunny 67 19.4 27 -3 22 22 ENE 10 17 30.18 1022 10 16 0.00 0.00
5:15 pm 17:15 Sunny 67 19.3 28 -2.2 23 23 E 8 13 30.18 1022 10 16 0.00 0.00
5:35 pm 17:35 Sunny 67 19.2 27 -3 22 22 E 12 19 30.18 1022 7 11 0.00 0.00
5:55 pm 17:55 Sunny 66 19 27 -2.8 23 23 NE 9 15 30.18 1022 10 16 0.00 0.00
6:15 pm 18:15 Sunny 67 19.4 29 -1.7 24 24 E 9 15 30.18 1022 10 16 0.00 0.00
6:35 pm 18:35 Sunny 67 19.2 29 -1.8 24 24 ENE 12 19 30.15 1021 10 16 0.00 0.00
6:55 pm 18:55 Sunny 66 19.1 29 -1.5 25 25 ENE 14 22 30.15 1021 10 16 0.00 0.00
7:15 pm 19:15 Sunny 66 18.8 29 -1.4 26 26 E 13 20 30.15 1021 10 16 0.00 0.00
7:35 pm 19:35 Sunny 65 18.2 31 -0.8 28 28 ENE 9 15 30.15 1021 10 16 0.00 0.00
7:55 pm 19:55 Sunny 63 17.3 31 -0.8 29 29 NE 15 24 30.15 1021 10 16 0.00 0.00
8:15 pm 20:15 Sunny 61 16.1 31 -0.7 32 32 NE 12 19 30.18 1022 10 16 0.00 0.00
8:35 pm 20:35 Clear 59 15.1 31 -0.3 35 35 NE 9 15 30.18 1022 10 16 0.00 0.00
8:55 pm 20:55 Clear 59 15 31 -0.5 35 35 NE 6 9 30.18 1022 10 16 0.00 0.00
9:15 pm 21:15 Clear 59 15.1 31 -0.8 34 34 NNE 5 7 30.18 1022 10 16 0.00 0.00
9:35 pm 21:35 Clear 55 12.8 34 1 45 45 NNE 6 9 30.18 1022 10 16 0.00 0.00
9:55 pm 21:55 Clear 52 11.2 35 1.6 52 52 N 6 9 30.18 1022 10 16 0.00 0.00
10:15 pm 22:15 Clear 51 10.6 36 2.4 57 57 NNE 7 11 30.18 1022 10 16 0.00 0.00
10:35 pm 22:35 Clear 53 11.6 34 1.3 50 50 N 6 9 30.18 1022 10 16 0.00 0.00
10:55 pm 22:55 Clear 50 9.9 37 2.5 60 60 N 5 7 30.18 1022 10 16 0.00 0.00
11:15 pm 23:15 Clear 49 9.3 37 2.5 63 63 N 7 11 30.18 1022 10 16 0.00 0.00
11:35 pm 23:35 Clear 48 8.8 37 2.9 67 67 N 8 13 30.18 1022 10 16 0.00 0.00
11:55 pm 23:55 Clear 48 8.9 37 2.5 65 65 N 6 9 30.18 1022 10 16 0.00 0.00

Powered by AerisWeather